EW4423 Weather Reports


time (UTC)temp
F
wind
direction
speed
knots
gust
knots
rain 1hr
in
rain 24hr
in
rain mn
in
humidity
%
barometer
mb
20260505153012 74 223 16.5 23.5 0.00 0.00 0.00 82 1005.5
20260505151505 74 202 11.3 20.0 0.00 0.00 0.00 83 1005.3
20260505124543 69 193 12.2 16.5 0.00 0.00 0.00 87 1004.9
20260505123051 69 204 13.0 20.0 0.00 0.00 0.00 87 1004.9
20260505121541 69 212 13.9 19.1 0.00 0.00 0.00 87 1004.7
20260505114539 69 205 9.6 15.6 0.00 0.00 0.00 87 1004.7
20260505113038 69 217 12.2 19.1 0.00 0.00 0.00 86 1004.8
20260505111538 69 221 10.4 19.1 0.00 0.00 0.00 86 1004.8
20260505101533 69 220 8.7 18.2 0.00 0.00 0.00 84 1004.7
20260505100035 69 206 11.3 17.4 0.00 0.00 0.00 84 1004.9
20260505094533 69 198 12.2 19.1 0.00 0.00 0.00 84 1004.8
20260505093032 69 202 11.3 20.9 0.00 0.00 0.00 84 1004.7
20260505091530 69 202 12.2 22.6 0.00 0.00 0.00 84 1004.8
20260505090029 69 188 12.2 18.2 0.00 0.00 0.00 84 1004.7
20260505084531 69 188 13.0 19.1 0.00 0.00 0.00 84 1004.8
20260505083026 69 201 13.0 19.1 0.00 0.00 0.00 84 1005.1
20260505081524 68 221 13.0 20.0 0.00 0.00 0.00 84 1005.2
20260505080021 68 207 13.9 21.7 0.00 0.00 0.00 83 1005.3
20260505074519 69 201 12.2 20.0 0.00 0.00 0.00 83 1005.4
20260505073016 69 221 12.2 20.0 0.00 0.00 0.00 82 1005.5
20260505071513 69 202 17.4 22.6 0.00 0.00 0.00 81 1005.5
20260505070009 69 205 13.9 21.7 0.00 0.00 0.00 81 1005.9
20260505064509 70 199 13.9 21.7 0.00 0.00 0.00 80 1006.1
20260505063007 70 195 13.0 20.0 0.00 0.00 0.00 80 1006.1
20260505061502 70 212 13.0 19.1 0.00 0.00 0.00 79 1006.2
20260505060104 70 194 12.2 17.4 0.00 0.00 0.00 79 1006.2
20260505054602 70 198 11.3 19.1 0.00 0.00 0.00 78 1006.4
20260505053055 70 188 10.4 15.6 0.00 0.00 0.00 77 1006.4
20260505051552 70 183 8.7 15.6 0.00 0.00 0.00 76 1006.5
20260505041553 71 196 9.6 16.5 0.00 0.00 0.00 74 1006.7
20260505040056 71 195 9.6 13.0 0.00 0.00 0.00 73 1006.9
20260505034605 71 195 7.8 13.0 0.00 0.00 0.00 72 1006.9
20260505033046 71 184 7.8 12.2 0.00 0.00 0.00 71 1007.0
20260505031546 72 210 7.8 13.0 0.00 0.00 0.00 70 1007.0
20260505030049 72 188 9.6 18.2 0.00 0.00 0.00 69 1007.0
20260505024547 72 202 8.7 16.5 0.00 0.00 0.00 69 1006.7
20260505023046 72 190 9.6 14.8 0.00 0.00 0.00 68 1006.7
20260505021544 72 196 9.6 13.9 0.00 0.00 0.00 68 1006.8
20260505020054 73 190 9.6 13.9 0.00 0.00 0.00 67 1006.8
20260505014543 73 211 8.7 13.0 0.00 0.00 0.00 66 1006.7
20260505013042 73 202 9.6 13.0 0.00 0.00 0.00 65 1006.6
20260505011540 74 198 10.4 14.8 0.00 0.00 0.00 64 1006.7
20260505010052 74 190 9.6 19.1 0.00 0.00 0.00 63 1006.6
20260505004557 75 188 9.6 14.8 0.00 0.00 0.00 61 1006.6
20260505003038 76 188 9.6 15.6 0.00 0.00 0.00 60 1006.4
20260505001538 76 204 9.6 17.4 0.00 0.00 0.00 59 1006.7
20260505000037 77 194 10.4 18.2 0.00 0.00 0.00 57 1006.7
20260504234535 78 175 10.4 17.4 0.00 0.00 0.00 56 1007.0
20260504233032 80 188 13.9 20.0 0.00 0.00 0.00 54 1006.9
20260504231530 79 182 11.3 20.0 0.00 0.00 0.00 54 1007.3
20260504230029 80 186 13.0 20.9 0.00 0.00 0.00 53 1007.5
20260504224533 80 198 13.9 21.7 0.00 0.00 0.00 52 1007.5
20260504223027 81 173 11.3 19.1 0.00 0.00 0.00 51 1007.7
20260504221535 81 188 14.8 25.2 0.00 0.00 0.00 50 1008.0
20260504220023 80 200 12.2 21.7 0.00 0.00 0.00 51 1008.0
20260504214521 81 159 13.0 20.9 0.00 0.00 0.00 50 1008.1
20260504213032 81 202 12.2 24.3 0.00 0.00 0.00 50 1008.5
20260504211517 81 186 13.9 20.0 0.00 0.00 0.00 50 1008.5
20260504210017 81 205 14.8 23.5 0.00 0.00 0.00 50 1009.0
20260504204513 81 188 13.0 24.3 0.00 0.00 0.00 49 1009.2
20260504203008 81 177 9.6 19.1 0.00 0.00 0.00 49 1009.7
20260504201506 81 185 10.4 21.7 0.00 0.00 0.00 51 1009.9
20260504200006 81 163 11.3 19.1 0.00 0.00 0.00 50 1010.3
20260504194605 80 169 11.3 19.1 0.00 0.00 0.00 51 1010.5
20260504193057 80 184 10.4 19.1 0.00 0.00 0.00 51 1010.8
20260504191615 80 173 12.2 19.1 0.00 0.00 0.00 52 1010.9
20260504190053 79 185 9.6 18.2 0.00 0.00 0.00 52 1011.2
20260504184600 79 175 11.3 16.5 0.00 0.00 0.00 52 1011.4
20260504183048 78 174 11.3 20.9 0.00 0.00 0.00 52 1011.7
20260504181546 78 185 10.4 20.9 0.00 0.00 0.00 52 1011.9
20260504180043 77 173 10.4 17.4 0.00 0.00 0.00 54 1012.1
20260504174542 77 215 13.9 21.7 0.00 0.00 0.00 52 1012.2
20260504173038 76 225 12.2 18.2 0.00 0.00 0.00 54 1012.4
20260504171538 75 209 11.3 17.4 0.00 0.00 0.00 54 1012.9